Tracking 19485 objects as of 22-Jan-2019
HD Live streaming from Space Station
objects crossing your sky now

RADUGA 3

Track RADUGA 3 now!
RADUGA 3 is classified as:


NORAD ID: 10159
Int'l Code: 1977-071A
Perigee: 35,755.9 km
Apogee: 35,807.3 km
Inclination: 10.6 °
Period: 1,435.5 minutes
Semi major axis: 42152 km
RCS: 1.2589 m2 (large)
Launch date: July 23, 1977
Source: Commonwealth of Independent States (former USSR) (CIS)
Launch site: TYURATAM MISSILE AND SPACE COMPLEX (TTMTR)
aabbcc
Your satellite tracking list
Your tracking list is empty




NASA's NSSDC Master Catalog

Two Line Element Set (TLE):
1 10159U 77071A   19020.43035578 +.00000150 +00000-0 +00000-0 0  9991
2 10159 010.6049 309.1679 0006090 229.0624 137.4264 01.00315065149926
Source of the keplerian elements: AFSPC